| time (UTC) | temp F | wind direction | speed MPH | gust MPH | rain 1hr in | rain 24hr in | rain mn in | humidity % | barometer mb |
| 20260906083518 | 61 | 51 | 1.0 | 3.0 | 0.00 | 0.00 | 0.00 | 94 | 1013.7 |
| 20260906083037 | 61 | 319 | 1.0 | 3.0 | 0.00 | 0.00 | 0.00 | 94 | 1013.6 |
| 20260906082516 | 61 | 93 | 0.0 | 2.0 | 0.00 | 0.00 | 0.00 | 94 | 1013.5 |
| 20260906082016 | 61 | 76 | 0.0 | 2.0 | 0.00 | 0.00 | 0.00 | 94 | 1013.3 |
| 20260906081533 | 61 | 93 | 0.0 | 2.0 | 0.00 | 0.00 | 0.00 | 94 | 1013.3 |
| 20260906081021 | 62 | 72 | 1.0 | 2.0 | 0.00 | 0.00 | 0.00 | 94 | 1013.4 |
| 20260906080516 | 62 | 0 | 0.0 | 2.0 | 0.00 | 0.00 | 0.00 | 94 | 1013.4 |
| 20260906080045 | 62 | 0 | 0.0 | 2.0 | 0.00 | 0.00 | 0.00 | 94 | 1013.5 |
| 20260906075517 | 62 | 0 | 1.0 | 2.0 | 0.00 | 0.00 | 0.00 | 94 | 1013.6 |
| 20260906075017 | 62 | 309 | 0.0 | 2.0 | 0.00 | 0.00 | 0.00 | 94 | 1013.7 |
| 20260906074538 | 62 | 0 | 0.0 | 3.0 | 0.00 | 0.00 | 0.00 | 94 | 1013.8 |
| 20260906074018 | 63 | 334 | 1.0 | 3.0 | 0.00 | 0.00 | 0.00 | 94 | 1013.7 |
| 20260906073517 | 63 | 93 | 0.0 | 3.0 | 0.00 | 0.00 | 0.00 | 94 | 1013.6 |
| 20260906073034 | 63 | 61 | 1.0 | 3.0 | 0.00 | 0.00 | 0.00 | 94 | 1013.6 |
| 20260906072518 | 63 | 93 | 1.0 | 3.0 | 0.00 | 0.00 | 0.00 | 94 | 1013.5 |
| 20260906072016 | 63 | 0 | 1.0 | 4.0 | 0.00 | 0.00 | 0.00 | 94 | 1013.5 |
| 20260906071540 | 63 | 344 | 1.0 | 4.0 | 0.00 | 0.00 | 0.00 | 94 | 1013.5 |
| 20260906071020 | 63 | 9 | 0.0 | 4.0 | 0.00 | 0.00 | 0.00 | 94 | 1013.5 |
| 20260906070515 | 63 | 0 | 1.0 | 5.0 | 0.00 | 0.00 | 0.00 | 94 | 1013.5 |
| 20260906070039 | 63 | 69 | 1.0 | 5.0 | 0.00 | 0.00 | 0.00 | 94 | 1013.4 |
| 20260906065516 | 63 | 55 | 0.0 | 3.0 | 0.00 | 0.00 | 0.00 | 94 | 1013.5 |
| 20260906065018 | 63 | 26 | 1.0 | 3.0 | 0.00 | 0.00 | 0.00 | 94 | 1013.5 |
| 20260906064534 | 63 | 303 | 1.0 | 4.0 | 0.00 | 0.00 | 0.00 | 95 | 1013.5 |
| 20260906064017 | 63 | 325 | 1.0 | 4.0 | 0.00 | 0.00 | 0.00 | 95 | 1013.3 |
| 20260906063516 | 63 | 9 | 1.0 | 3.0 | 0.00 | 0.00 | 0.00 | 95 | 1013.6 |
| 20260906063037 | 63 | 34 | 0.0 | 3.0 | 0.00 | 0.00 | 0.00 | 95 | 1013.6 |
| 20260906062521 | 63 | 51 | 1.0 | 3.0 | 0.00 | 0.00 | 0.00 | 95 | 1013.6 |
| 20260906062019 | 63 | 0 | 1.0 | 3.0 | 0.00 | 0.00 | 0.00 | 94 | 1013.7 |
| 20260906061546 | 63 | 342 | 1.0 | 3.0 | 0.00 | 0.00 | 0.00 | 94 | 1013.7 |
| 20260906061020 | 63 | 9 | 0.0 | 2.0 | 0.00 | 0.00 | 0.00 | 94 | 1013.7 |
| 20260906060521 | 63 | 334 | 1.0 | 2.0 | 0.00 | 0.00 | 0.00 | 94 | 1013.8 |
| 20260906060046 | 63 | 51 | 0.0 | 2.0 | 0.00 | 0.00 | 0.00 | 94 | 1013.7 |
| 20260906055517 | 63 | 93 | 1.0 | 2.0 | 0.00 | 0.00 | 0.00 | 94 | 1013.7 |
| 20260906055018 | 62 | 51 | 0.0 | 2.0 | 0.00 | 0.00 | 0.00 | 94 | 1013.7 |
| 20260906054542 | 62 | 93 | 0.0 | 2.0 | 0.00 | 0.00 | 0.00 | 94 | 1013.7 |
| 20260906054016 | 62 | 0 | 1.0 | 2.0 | 0.00 | 0.00 | 0.00 | 94 | 1013.8 |
| 20260906053516 | 62 | 51 | 1.0 | 2.0 | 0.00 | 0.00 | 0.00 | 94 | 1013.8 |
| 20260906053038 | 62 | 59 | 0.0 | 2.0 | 0.00 | 0.00 | 0.00 | 94 | 1013.7 |
| 20260906052519 | 62 | 26 | 1.0 | 2.0 | 0.00 | 0.00 | 0.00 | 93 | 1013.7 |
| 20260906052019 | 63 | 67 | 0.0 | 2.0 | 0.00 | 0.00 | 0.00 | 93 | 1013.6 |
| 20260906051540 | 63 | 93 | 0.0 | 3.0 | 0.00 | 0.00 | 0.00 | 93 | 1013.6 |
| 20260906051021 | 63 | 0 | 0.0 | 3.0 | 0.00 | 0.00 | 0.00 | 93 | 1013.6 |
| 20260906050522 | 63 | 325 | 1.0 | 3.0 | 0.00 | 0.00 | 0.00 | 94 | 1013.6 |
| 20260906050041 | 63 | 330 | 1.0 | 3.0 | 0.00 | 0.00 | 0.00 | 94 | 1013.6 |
| 20260906045521 | 63 | 330 | 0.0 | 2.0 | 0.00 | 0.00 | 0.00 | 94 | 1013.7 |
| 20260906045020 | 62 | 153 | 0.0 | 3.0 | 0.00 | 0.00 | 0.00 | 94 | 1013.7 |
| 20260906044541 | 62 | 334 | 0.0 | 3.0 | 0.00 | 0.00 | 0.00 | 94 | 1013.7 |
| 20260906044023 | 62 | 28 | 1.0 | 3.0 | 0.00 | 0.00 | 0.00 | 94 | 1013.7 |
| 20260906043519 | 61 | 9 | 0.0 | 2.0 | 0.00 | 0.00 | 0.00 | 93 | 1013.7 |
| 20260906043042 | 62 | 41 | 1.0 | 2.0 | 0.00 | 0.00 | 0.00 | 93 | 1013.7 |
| 20260906042518 | 62 | 93 | 0.0 | 2.0 | 0.00 | 0.00 | 0.00 | 93 | 1013.5 |
| 20260906042016 | 62 | 51 | 1.0 | 2.0 | 0.00 | 0.00 | 0.00 | 93 | 1013.7 |
| 20260906041538 | 62 | 0 | 1.0 | 3.0 | 0.00 | 0.00 | 0.00 | 93 | 1013.6 |
| 20260906041022 | 62 | 93 | 0.0 | 3.0 | 0.00 | 0.00 | 0.00 | 93 | 1013.7 |
| 20260906040521 | 62 | 341 | 1.0 | 3.0 | 0.00 | 0.00 | 0.00 | 93 | 1013.6 |
| 20260906040039 | 61 | 0 | 1.0 | 3.0 | 0.00 | 0.00 | 0.00 | 93 | 1013.6 |
| 20260906035520 | 62 | 9 | 1.0 | 3.0 | 0.00 | 0.00 | 0.00 | 92 | 1013.6 |
| 20260906035020 | 62 | 0 | 0.0 | 2.0 | 0.00 | 0.00 | 0.00 | 92 | 1013.6 |
| 20260906034554 | 62 | 51 | 0.0 | 2.0 | 0.00 | 0.00 | 0.00 | 92 | 1013.5 |
| 20260906034019 | 62 | 46 | 1.0 | 2.0 | 0.00 | 0.00 | 0.00 | 92 | 1013.5 |
| 20260906033518 | 62 | 0 | 0.0 | 2.0 | 0.00 | 0.00 | 0.00 | 92 | 1013.5 |
| 20260906033044 | 62 | 59 | 1.0 | 2.0 | 0.00 | 0.00 | 0.00 | 91 | 1013.5 |
| 20260906032517 | 62 | 51 | 1.0 | 2.0 | 0.00 | 0.00 | 0.00 | 91 | 1013.5 |
| 20260906032016 | 62 | 80 | 1.0 | 2.0 | 0.00 | 0.00 | 0.00 | 91 | 1013.4 |
| 20260906031540 | 62 | 34 | 1.0 | 2.0 | 0.00 | 0.00 | 0.00 | 90 | 1013.5 |
| 20260906031019 | 62 | 0 | 0.0 | 2.0 | 0.00 | 0.00 | 0.00 | 90 | 1013.3 |
| 20260906030521 | 63 | 330 | 1.0 | 2.0 | 0.00 | 0.00 | 0.00 | 90 | 1013.2 |
| 20260906030041 | 63 | 0 | 0.0 | 2.0 | 0.00 | 0.00 | 0.00 | 89 | 1013.2 |
| 20260906025522 | 63 | 9 | 0.0 | 2.0 | 0.00 | 0.00 | 0.00 | 89 | 1013.3 |
| 20260906025018 | 63 | 0 | 0.0 | 2.0 | 0.00 | 0.00 | 0.00 | 88 | 1013.3 |
| 20260906024543 | 63 | 34 | 0.0 | 2.0 | 0.00 | 0.00 | 0.00 | 88 | 1013.3 |
| 20260906024022 | 64 | 0 | 0.0 | 4.0 | 0.00 | 0.00 | 0.00 | 88 | 1013.3 |
| 20260906023518 | 64 | 0 | 0.0 | 4.0 | 0.00 | 0.00 | 0.00 | 88 | 1013.4 |
| 20260906023039 | 64 | 126 | 1.0 | 4.0 | 0.00 | 0.00 | 0.00 | 88 | 1013.2 |
| 20260906022520 | 64 | 83 | 0.0 | 2.0 | 0.00 | 0.00 | 0.00 | 88 | 1013.1 |
| 20260906022017 | 64 | 0 | 0.0 | 2.0 | 0.00 | 0.00 | 0.00 | 87 | 1013.0 |
| 20260906021544 | 64 | 9 | 0.0 | 2.0 | 0.00 | 0.00 | 0.00 | 87 | 1013.0 |
| 20260906021017 | 65 | 19 | 1.0 | 2.0 | 0.00 | 0.00 | 0.00 | 87 | 1013.1 |
| 20260906020519 | 65 | 26 | 1.0 | 2.0 | 0.00 | 0.00 | 0.00 | 87 | 1013.1 |
| 20260906020042 | 65 | 51 | 1.0 | 3.0 | 0.00 | 0.00 | 0.00 | 87 | 1013.1 |
| 20260906015517 | 65 | 59 | 1.0 | 3.0 | 0.00 | 0.00 | 0.00 | 87 | 1013.1 |
| 20260906015018 | 64 | 26 | 1.0 | 2.0 | 0.00 | 0.00 | 0.00 | 86 | 1013.0 |
| 20260906014548 | 64 | 64 | 1.0 | 2.0 | 0.00 | 0.00 | 0.00 | 87 | 1013.2 |
| 20260906014022 | 64 | 9 | 0.0 | 2.0 | 0.00 | 0.00 | 0.00 | 87 | 1013.2 |
| 20260906013521 | 64 | 22 | 0.0 | 2.0 | 0.00 | 0.00 | 0.00 | 88 | 1013.1 |
| 20260906013035 | 64 | 9 | 1.0 | 2.0 | 0.00 | 0.00 | 0.00 | 87 | 1013.2 |
| 20260906012519 | 64 | 41 | 0.0 | 2.0 | 0.00 | 0.00 | 0.00 | 86 | 1013.0 |
| 20260906012018 | 65 | 80 | 0.0 | 2.0 | 0.00 | 0.00 | 0.00 | 86 | 1013.0 |
| 20260906011538 | 65 | 51 | 0.0 | 2.0 | 0.00 | 0.00 | 0.00 | 85 | 1013.1 |
| 20260906011018 | 65 | 26 | 0.0 | 2.0 | 0.00 | 0.00 | 0.00 | 85 | 1012.9 |
| 20260906010517 | 65 | 26 | 0.0 | 2.0 | 0.00 | 0.00 | 0.00 | 84 | 1012.8 |
| 20260906010056 | 65 | 51 | 1.0 | 2.0 | 0.00 | 0.00 | 0.00 | 83 | 1012.7 |
| 20260906005518 | 66 | 51 | 1.0 | 2.0 | 0.00 | 0.00 | 0.00 | 82 | 1012.7 |
| 20260906005016 | 66 | 59 | 0.0 | 2.0 | 0.00 | 0.00 | 0.00 | 81 | 1012.6 |
| 20260906004549 | 66 | 51 | 1.0 | 2.0 | 0.00 | 0.00 | 0.00 | 80 | 1012.5 |
| 20260906004022 | 67 | 68 | 1.0 | 2.0 | 0.00 | 0.00 | 0.00 | 80 | 1012.4 |
| 20260906003521 | 67 | 59 | 1.0 | 4.0 | 0.00 | 0.00 | 0.00 | 79 | 1012.4 |
| 20260906003042 | 67 | 61 | 1.0 | 4.0 | 0.00 | 0.00 | 0.00 | 79 | 1012.4 |
| 20260906002520 | 67 | 86 | 1.0 | 4.0 | 0.00 | 0.00 | 0.00 | 78 | 1012.4 |
| 20260906002019 | 68 | 80 | 1.0 | 3.0 | 0.00 | 0.00 | 0.00 | 77 | 1012.4 |
| 20260906001558 | 68 | 111 | 1.0 | 3.0 | 0.00 | 0.00 | 0.00 | 76 | 1012.3 |
| 20260906001019 | 68 | 0 | 0.0 | 3.0 | 0.00 | 0.00 | 0.00 | 76 | 1012.2 |
| 20260906000519 | 68 | 93 | 0.0 | 4.0 | 0.00 | 0.00 | 0.00 | 77 | 1012.2 |
| 20260906000043 | 68 | 319 | 1.0 | 4.0 | 0.00 | 0.00 | 0.00 | 75 | 1012.2 |
| 20260905235517 | 69 | 0 | 0.0 | 3.0 | 0.00 | 0.00 | 0.00 | 76 | 1011.9 |
| 20260905235019 | 69 | 61 | 1.0 | 2.0 | 0.00 | 0.00 | 0.00 | 77 | 1012.0 |
| 20260905234540 | 69 | 80 | 1.0 | 2.0 | 0.00 | 0.00 | 0.00 | 75 | 1012.0 |
| 20260905234019 | 69 | 51 | 1.0 | 2.0 | 0.00 | 0.00 | 0.00 | 76 | 1012.0 |
| 20260905233521 | 70 | 93 | 0.0 | 2.0 | 0.00 | 0.00 | 0.00 | 74 | 1012.0 |
| 20260905233040 | 70 | 329 | 1.0 | 2.0 | 0.00 | 0.00 | 0.00 | 74 | 1012.1 |
| 20260905232523 | 70 | 9 | 0.0 | 3.0 | 0.00 | 0.00 | 0.00 | 74 | 1012.1 |
| 20260905232019 | 71 | 0 | 0.0 | 3.0 | 0.00 | 0.00 | 0.00 | 72 | 1011.9 |
| 20260905231540 | 71 | 9 | 1.0 | 3.0 | 0.00 | 0.00 | 0.00 | 73 | 1012.0 |
| 20260905231024 | 72 | 34 | 0.0 | 2.0 | 0.00 | 0.00 | 0.00 | 72 | 1012.0 |
| 20260905230520 | 72 | 178 | 0.0 | 2.0 | 0.00 | 0.00 | 0.00 | 70 | 1012.0 |
| 20260905230043 | 73 | 76 | 0.0 | 3.0 | 0.00 | 0.00 | 0.00 | 70 | 1012.1 |
| 20260905225525 | 73 | 0 | 1.0 | 5.0 | 0.00 | 0.00 | 0.00 | 67 | 1011.9 |
| 20260905225018 | 73 | 93 | 1.0 | 5.0 | 0.00 | 0.00 | 0.00 | 67 | 1011.8 |
| 20260905224539 | 73 | 16 | 1.0 | 5.0 | 0.00 | 0.00 | 0.00 | 66 | 1011.8 |
| 20260905224024 | 74 | 38 | 2.0 | 5.0 | 0.00 | 0.00 | 0.00 | 66 | 1011.9 |
| 20260905223519 | 74 | 9 | 1.0 | 4.0 | 0.00 | 0.00 | 0.00 | 65 | 1011.7 |
| 20260905223049 | 74 | 119 | 2.0 | 5.0 | 0.00 | 0.00 | 0.00 | 63 | 1011.6 |
| 20260905222523 | 74 | 93 | 0.0 | 7.0 | 0.00 | 0.00 | 0.00 | 62 | 1011.6 |
| 20260905222020 | 75 | 59 | 0.0 | 8.0 | 0.00 | 0.00 | 0.00 | 62 | 1011.6 |
| 20260905221544 | 75 | 319 | 3.0 | 8.0 | 0.00 | 0.00 | 0.00 | 63 | 1011.6 |
| 20260905221019 | 75 | 286 | 1.0 | 6.0 | 0.00 | 0.00 | 0.00 | 63 | 1011.6 |
| 20260905220519 | 75 | 80 | 1.0 | 10.0 | 0.00 | 0.00 | 0.00 | 61 | 1011.6 |
| 20260905220038 | 75 | 327 | 2.0 | 10.0 | 0.00 | 0.00 | 0.00 | 61 | 1011.5 |
| 20260905215523 | 75 | 41 | 1.0 | 5.0 | 0.00 | 0.00 | 0.00 | 62 | 1011.5 |
| 20260905215019 | 75 | 22 | 1.0 | 5.0 | 0.00 | 0.00 | 0.00 | 63 | 1011.5 |
| 20260905214546 | 75 | 20 | 2.0 | 5.0 | 0.00 | 0.00 | 0.00 | 62 | 1011.6 |
| 20260905214020 | 75 | 0 | 2.0 | 7.0 | 0.00 | 0.00 | 0.00 | 61 | 1011.6 |
| 20260905213518 | 76 | 9 | 1.0 | 7.0 | 0.00 | 0.00 | 0.00 | 63 | 1011.7 |
| 20260905213042 | 76 | 23 | 2.0 | 7.0 | 0.00 | 0.00 | 0.00 | 61 | 1011.6 |
| 20260905212524 | 76 | 15 | 1.0 | 5.0 | 0.00 | 0.00 | 0.00 | 61 | 1011.3 |
| 20260905212018 | 77 | 314 | 2.0 | 5.0 | 0.00 | 0.00 | 0.00 | 59 | 1011.3 |
| 20260905211539 | 77 | 321 | 2.0 | 5.0 | 0.00 | 0.00 | 0.00 | 60 | 1011.3 |
| 20260905211021 | 77 | 11 | 1.0 | 10.0 | 0.00 | 0.00 | 0.00 | 58 | 1011.3 |
| 20260905210521 | 77 | 0 | 3.0 | 10.0 | 0.00 | 0.00 | 0.00 | 58 | 1011.3 |
| 20260905210053 | 77 | 291 | 4.0 | 10.0 | 0.00 | 0.00 | 0.00 | 57 | 1011.2 |
| 20260905205519 | 77 | 51 | 2.0 | 6.0 | 0.00 | 0.00 | 0.00 | 58 | 1011.3 |
| 20260905205017 | 77 | 280 | 2.0 | 6.0 | 0.00 | 0.00 | 0.00 | 59 | 1011.4 |
| 20260905204536 | 77 | 41 | 3.0 | 11.0 | 0.00 | 0.00 | 0.00 | 57 | 1011.3 |
| 20260905204020 | 77 | 51 | 3.0 | 11.0 | 0.00 | 0.00 | 0.00 | 57 | 1011.2 |
| 20260905203524 | 77 | 9 | 3.0 | 11.0 | 0.00 | 0.00 | 0.00 | 56 | 1011.2 |
| 20260905203039 | 78 | 13 | 4.0 | 11.0 | 0.00 | 0.00 | 0.00 | 57 | 1011.2 |
| 20260905202520 | 78 | 254 | 2.0 | 11.0 | 0.00 | 0.00 | 0.00 | 57 | 1011.1 |
| 20260905202021 | 78 | 298 | 2.0 | 11.0 | 0.00 | 0.00 | 0.00 | 60 | 1011.1 |
| 20260905201541 | 78 | 327 | 2.0 | 7.0 | 0.00 | 0.00 | 0.00 | 57 | 1011.2 |
| 20260905201020 | 77 | 0 | 2.0 | 11.0 | 0.00 | 0.00 | 0.00 | 58 | 1011.3 |
| 20260905200520 | 77 | 323 | 4.0 | 11.0 | 0.00 | 0.00 | 0.00 | 59 | 1011.4 |
| 20260905200105 | 77 | 319 | 3.0 | 11.0 | 0.00 | 0.00 | 0.00 | 56 | 1011.3 |
| 20260905195520 | 77 | 15 | 3.0 | 11.0 | 0.00 | 0.00 | 0.00 | 58 | 1011.3 |
| 20260905195017 | 77 | 137 | 3.0 | 11.0 | 0.00 | 0.00 | 0.00 | 59 | 1011.3 |
| 20260905194541 | 77 | 55 | 4.0 | 10.0 | 0.00 | 0.00 | 0.00 | 57 | 1011.3 |
| 20260905194018 | 77 | 40 | 3.0 | 10.0 | 0.00 | 0.00 | 0.00 | 59 | 1011.3 |
| 20260905193516 | 77 | 336 | 1.0 | 10.0 | 0.00 | 0.00 | 0.00 | 60 | 1011.3 |
| 20260905193040 | 76 | 90 | 3.0 | 10.0 | 0.00 | 0.00 | 0.00 | 59 | 1011.3 |
| 20260905192518 | 76 | 265 | 5.0 | 10.0 | 0.00 | 0.00 | 0.00 | 57 | 1011.4 |
| 20260905192022 | 77 | 51 | 5.0 | 12.0 | 0.00 | 0.00 | 0.00 | 57 | 1011.4 |
| 20260905191537 | 77 | 291 | 4.0 | 12.0 | 0.00 | 0.00 | 0.00 | 56 | 1011.3 |
| 20260905191023 | 76 | 333 | 1.0 | 13.0 | 0.00 | 0.00 | 0.00 | 62 | 1011.4 |
| 20260905190519 | 76 | 28 | 5.0 | 14.0 | 0.00 | 0.00 | 0.00 | 61 | 1011.4 |
| 20260905190036 | 76 | 328 | 2.0 | 14.0 | 0.00 | 0.00 | 0.00 | 61 | 1011.4 |
| 20260905185521 | 76 | 9 | 5.0 | 14.0 | 0.00 | 0.00 | 0.00 | 60 | 1011.5 |
| 20260905185020 | 76 | 51 | 3.0 | 9.0 | 0.00 | 0.00 | 0.00 | 61 | 1011.6 |
| 20260905184549 | 76 | 51 | 4.0 | 9.0 | 0.00 | 0.00 | 0.00 | 60 | 1011.6 |
| 20260905184018 | 76 | 298 | 3.0 | 10.0 | 0.00 | 0.00 | 0.00 | 59 | 1011.6 |
| 20260905183516 | 77 | 103 | 3.0 | 10.0 | 0.00 | 0.00 | 0.00 | 60 | 1011.7 |
| 20260905183042 | 77 | 63 | 1.0 | 10.0 | 0.00 | 0.00 | 0.00 | 64 | 1011.7 |
| 20260905182525 | 76 | 51 | 2.0 | 10.0 | 0.00 | 0.00 | 0.00 | 61 | 1011.7 |
| 20260905182023 | 76 | 27 | 3.0 | 10.0 | 0.00 | 0.00 | 0.00 | 64 | 1011.7 |
| 20260905181546 | 75 | 27 | 2.0 | 9.0 | 0.00 | 0.00 | 0.00 | 61 | 1011.7 |
| 20260905181019 | 75 | 300 | 3.0 | 12.0 | 0.00 | 0.00 | 0.00 | 63 | 1011.9 |
| 20260905180519 | 75 | 80 | 1.0 | 12.0 | 0.00 | 0.00 | 0.00 | 64 | 1012.0 |
| 20260905180042 | 75 | 44 | 4.0 | 12.0 | 0.00 | 0.00 | 0.00 | 62 | 1012.0 |
| 20260905175525 | 75 | 272 | 4.0 | 9.0 | 0.00 | 0.00 | 0.00 | 63 | 1012.0 |
| 20260905175019 | 75 | 347 | 3.0 | 9.0 | 0.00 | 0.00 | 0.00 | 64 | 1012.0 |
| 20260905174540 | 75 | 296 | 3.0 | 9.0 | 0.00 | 0.00 | 0.00 | 63 | 1011.9 |
| 20260905174018 | 75 | 30 | 3.0 | 10.0 | 0.00 | 0.00 | 0.00 | 65 | 1012.0 |
| 20260905173519 | 75 | 48 | 3.0 | 13.0 | 0.00 | 0.00 | 0.00 | 63 | 1012.0 |
| 20260905173045 | 75 | 178 | 5.0 | 13.0 | 0.00 | 0.00 | 0.00 | 64 | 1012.1 |
| 20260905172521 | 75 | 26 | 2.0 | 11.0 | 0.00 | 0.00 | 0.00 | 64 | 1012.0 |
| 20260905172021 | 74 | 21 | 5.0 | 11.0 | 0.00 | 0.00 | 0.00 | 63 | 1012.2 |
| 20260905171540 | 75 | 319 | 5.0 | 12.0 | 0.00 | 0.00 | 0.00 | 64 | 1012.3 |
| 20260905171021 | 74 | 51 | 4.0 | 12.0 | 0.00 | 0.00 | 0.00 | 64 | 1012.2 |
| 20260905170522 | 74 | 346 | 5.0 | 12.0 | 0.00 | 0.00 | 0.00 | 64 | 1012.2 |
| 20260905170038 | 75 | 40 | 4.0 | 11.0 | 0.00 | 0.00 | 0.00 | 63 | 1012.2 |
| 20260905165520 | 75 | 16 | 3.0 | 10.0 | 0.00 | 0.00 | 0.00 | 67 | 1012.1 |
| 20260905165023 | 74 | 225 | 3.0 | 11.0 | 0.00 | 0.00 | 0.00 | 64 | 1012.2 |
| 20260905164543 | 74 | 33 | 3.0 | 11.0 | 0.00 | 0.00 | 0.00 | 65 | 1012.3 |
| 20260905164025 | 74 | 19 | 5.0 | 11.0 | 0.00 | 0.00 | 0.00 | 65 | 1012.3 |
| 20260905163521 | 74 | 146 | 3.0 | 10.0 | 0.00 | 0.00 | 0.00 | 65 | 1012.5 |
| 20260905163043 | 74 | 57 | 3.0 | 10.0 | 0.00 | 0.00 | 0.00 | 65 | 1012.5 |
| 20260905162518 | 74 | 123 | 4.0 | 10.0 | 0.00 | 0.00 | 0.00 | 65 | 1012.5 |
| 20260905162020 | 74 | 24 | 2.0 | 16.0 | 0.00 | 0.00 | 0.00 | 65 | 1012.4 |
| 20260905161541 | 74 | 83 | 6.0 | 16.0 | 0.00 | 0.00 | 0.00 | 65 | 1012.5 |
| 20260905161023 | 73 | 67 | 4.0 | 14.0 | 0.00 | 0.00 | 0.00 | 66 | 1012.4 |
| 20260905160519 | 73 | 273 | 5.0 | 12.0 | 0.00 | 0.00 | 0.00 | 66 | 1012.4 |
| 20260905160040 | 73 | 309 | 2.0 | 12.0 | 0.00 | 0.00 | 0.00 | 66 | 1012.5 |
| 20260905155518 | 74 | 307 | 4.0 | 12.0 | 0.00 | 0.00 | 0.00 | 64 | 1012.5 |
| 20260905155020 | 74 | 328 | 3.0 | 12.0 | 0.00 | 0.00 | 0.00 | 68 | 1012.6 |
| 20260905154545 | 74 | 328 | 3.0 | 12.0 | 0.00 | 0.00 | 0.00 | 67 | 1012.5 |
| 20260905154021 | 74 | 42 | 4.0 | 14.0 | 0.00 | 0.00 | 0.00 | 64 | 1012.5 |
| 20260905153521 | 73 | 90 | 5.0 | 14.0 | 0.00 | 0.00 | 0.00 | 65 | 1012.5 |
| 20260905153041 | 73 | 38 | 2.0 | 9.0 | 0.00 | 0.00 | 0.00 | 68 | 1012.5 |
| 20260905152523 | 72 | 291 | 3.0 | 11.0 | 0.00 | 0.00 | 0.00 | 67 | 1012.4 |
| 20260905152019 | 72 | 336 | 4.0 | 11.0 | 0.00 | 0.00 | 0.00 | 67 | 1012.4 |
| 20260905151550 | 72 | 19 | 4.0 | 11.0 | 0.00 | 0.00 | 0.00 | 68 | 1012.5 |
| 20260905151021 | 72 | 341 | 4.0 | 11.0 | 0.00 | 0.00 | 0.00 | 69 | 1012.5 |
| 20260905150521 | 71 | 47 | 3.0 | 9.0 | 0.00 | 0.00 | 0.00 | 70 | 1012.6 |
| 20260905150046 | 71 | 319 | 2.0 | 9.0 | 0.00 | 0.00 | 0.00 | 72 | 1012.7 |
| 20260905145520 | 71 | 51 | 3.0 | 11.0 | 0.00 | 0.00 | 0.00 | 70 | 1012.8 |
| 20260905145021 | 72 | 124 | 2.0 | 11.0 | 0.00 | 0.00 | 0.00 | 71 | 1013.0 |
| 20260905144546 | 73 | 34 | 4.0 | 11.0 | 0.00 | 0.00 | 0.00 | 69 | 1012.8 |
| 20260905144021 | 73 | 68 | 3.0 | 11.0 | 0.00 | 0.00 | 0.00 | 69 | 1013.1 |
| 20260905143520 | 72 | 284 | 4.0 | 12.0 | 0.00 | 0.00 | 0.00 | 69 | 1013.1 |
| 20260905143039 | 72 | 13 | 5.0 | 12.0 | 0.00 | 0.00 | 0.00 | 68 | 1013.1 |
| 20260905142525 | 72 | 311 | 3.0 | 12.0 | 0.00 | 0.00 | 0.00 | 73 | 1013.1 |
| 20260905142019 | 72 | 26 | 5.0 | 12.0 | 0.00 | 0.00 | 0.00 | 71 | 1013.1 |
| 20260905141541 | 71 | 236 | 4.0 | 14.0 | 0.00 | 0.00 | 0.00 | 71 | 1013.1 |
| 20260905141020 | 72 | 29 | 6.0 | 14.0 | 0.00 | 0.00 | 0.00 | 72 | 1013.0 |
| 20260905140518 | 71 | 104 | 5.0 | 12.0 | 0.00 | 0.00 | 0.00 | 74 | 1013.0 |
| 20260905140042 | 71 | 250 | 3.0 | 13.0 | 0.00 | 0.00 | 0.00 | 75 | 1013.0 |
| 20260905135521 | 71 | 287 | 6.0 | 13.0 | 0.00 | 0.00 | 0.00 | 73 | 1013.0 |
| 20260905135022 | 71 | 33 | 5.0 | 13.0 | 0.00 | 0.00 | 0.00 | 74 | 1013.1 |
| 20260905134542 | 71 | 67 | 4.0 | 13.0 | 0.00 | 0.00 | 0.00 | 74 | 1013.0 |
| 20260905134021 | 71 | 328 | 4.0 | 15.0 | 0.00 | 0.00 | 0.00 | 75 | 1013.0 |
| 20260905133521 | 71 | 9 | 5.0 | 15.0 | 0.00 | 0.00 | 0.00 | 74 | 1012.9 |
| 20260905133038 | 71 | 301 | 3.0 | 9.0 | 0.00 | 0.00 | 0.00 | 77 | 1013.0 |
| 20260905132517 | 71 | 309 | 2.0 | 8.0 | 0.00 | 0.00 | 0.00 | 76 | 1013.0 |
| 20260905132019 | 70 | 334 | 3.0 | 8.0 | 0.00 | 0.00 | 0.00 | 79 | 1013.2 |
| 20260905131551 | 70 | 293 | 2.0 | 8.0 | 0.00 | 0.00 | 0.00 | 80 | 1013.0 |
| 20260905131020 | 69 | 139 | 2.0 | 9.0 | 0.00 | 0.00 | 0.00 | 79 | 1013.0 |
| 20260905130518 | 69 | 41 | 1.0 | 9.0 | 0.00 | 0.00 | 0.00 | 79 | 1013.0 |
| 20260905130038 | 69 | 36 | 3.0 | 9.0 | 0.00 | 0.00 | 0.00 | 79 | 1012.9 |
| 20260905125521 | 69 | 304 | 3.0 | 5.0 | 0.00 | 0.00 | 0.00 | 79 | 1013.0 |
| 20260905125023 | 69 | 296 | 2.0 | 6.0 | 0.00 | 0.00 | 0.00 | 80 | 1012.9 |
| 20260905124538 | 68 | 282 | 1.0 | 7.0 | 0.00 | 0.00 | 0.00 | 82 | 1012.9 |
| 20260905124022 | 68 | 325 | 2.0 | 7.0 | 0.00 | 0.00 | 0.00 | 82 | 1012.7 |
| 20260905123525 | 67 | 284 | 2.0 | 5.0 | 0.00 | 0.00 | 0.00 | 83 | 1012.6 |
| 20260905123100 | 67 | 9 | 1.0 | 4.0 | 0.00 | 0.00 | 0.00 | 83 | 1012.5 |
| 20260905122518 | 67 | 254 | 1.0 | 5.0 | 0.00 | 0.00 | 0.00 | 84 | 1012.5 |
| 20260905122018 | 66 | 273 | 1.0 | 5.0 | 0.00 | 0.00 | 0.00 | 85 | 1012.6 |
| 20260905121539 | 66 | 51 | 1.0 | 5.0 | 0.00 | 0.00 | 0.00 | 86 | 1012.4 |
| 20260905121018 | 65 | 126 | 1.0 | 4.0 | 0.00 | 0.00 | 0.00 | 87 | 1012.5 |
| 20260905120523 | 65 | 16 | 1.0 | 4.0 | 0.00 | 0.00 | 0.00 | 87 | 1012.6 |
| 20260905120041 | 65 | 38 | 0.0 | 4.0 | 0.00 | 0.00 | 0.00 | 88 | 1012.4 |
| 20260905115523 | 65 | 291 | 1.0 | 4.0 | 0.00 | 0.00 | 0.00 | 88 | 1012.4 |
| 20260905115018 | 64 | 9 | 1.0 | 4.0 | 0.00 | 0.00 | 0.00 | 90 | 1012.3 |
| 20260905114544 | 63 | 51 | 1.0 | 4.0 | 0.00 | 0.00 | 0.00 | 91 | 1012.3 |
| 20260905114018 | 63 | 9 | 1.0 | 3.0 | 0.00 | 0.00 | 0.00 | 91 | 1012.1 |
| 20260905113518 | 63 | 67 | 1.0 | 3.0 | 0.00 | 0.00 | 0.00 | 92 | 1011.9 |
| 20260905113037 | 62 | 78 | 1.0 | 4.0 | 0.00 | 0.00 | 0.00 | 92 | 1011.8 |
| 20260905112519 | 62 | 76 | 0.0 | 4.0 | 0.00 | 0.00 | 0.00 | 91 | 1011.5 |
| 20260905112018 | 62 | 123 | 0.0 | 4.0 | 0.00 | 0.00 | 0.00 | 92 | 1011.4 |
| 20260905111538 | 62 | 309 | 1.0 | 4.0 | 0.00 | 0.00 | 0.00 | 92 | 1011.4 |
| 20260905111020 | 61 | 41 | 1.0 | 4.0 | 0.00 | 0.00 | 0.00 | 92 | 1011.2 |
| 20260905110528 | 61 | 56 | 1.0 | 3.0 | 0.00 | 0.00 | 0.00 | 92 | 1011.2 |
| 20260905110042 | 61 | 0 | 1.0 | 3.0 | 0.00 | 0.00 | 0.00 | 92 | 1011.1 |
| 20260905105518 | 61 | 26 | 1.0 | 3.0 | 0.00 | 0.00 | 0.00 | 93 | 1011.1 |
| 20260905105017 | 61 | 0 | 1.0 | 3.0 | 0.00 | 0.00 | 0.00 | 93 | 1011.1 |
| 20260905104539 | 61 | 64 | 0.0 | 2.0 | 0.00 | 0.00 | 0.00 | 93 | 1011.1 |
| 20260905104016 | 61 | 0 | 1.0 | 3.0 | 0.00 | 0.00 | 0.00 | 93 | 1011.0 |
| 20260905103521 | 61 | 0 | 0.0 | 3.0 | 0.00 | 0.00 | 0.00 | 93 | 1011.1 |
| 20260905103045 | 61 | 9 | 1.0 | 3.0 | 0.00 | 0.00 | 0.00 | 93 | 1011.0 |
| 20260905102520 | 61 | 0 | 0.0 | 2.0 | 0.00 | 0.00 | 0.00 | 93 | 1011.1 |
| 20260905102020 | 61 | 0 | 0.0 | 2.0 | 0.00 | 0.00 | 0.00 | 93 | 1011.1 |
| 20260905101536 | 61 | 126 | 0.0 | 3.0 | 0.00 | 0.00 | 0.00 | 93 | 1011.1 |
| 20260905101020 | 61 | 316 | 0.0 | 3.0 | 0.00 | 0.00 | 0.00 | 93 | 1011.0 |
| 20260905100520 | 61 | 44 | 0.0 | 2.0 | 0.00 | 0.00 | 0.00 | 93 | 1010.9 |
| 20260905100051 | 61 | 41 | 1.0 | 2.0 | 0.00 | 0.00 | 0.00 | 93 | 1010.8 |
| 20260905095517 | 61 | 41 | 0.0 | 2.0 | 0.00 | 0.00 | 0.00 | 93 | 1010.8 |
| 20260905095018 | 61 | 51 | 0.0 | 2.0 | 0.00 | 0.00 | 0.00 | 93 | 1010.8 |
| 20260905094539 | 61 | 115 | 0.0 | 2.0 | 0.00 | 0.00 | 0.00 | 93 | 1010.8 |
| 20260905094017 | 61 | 34 | 0.0 | 2.0 | 0.00 | 0.00 | 0.00 | 93 | 1010.8 |
| 20260905093521 | 61 | 68 | 0.0 | 2.0 | 0.00 | 0.00 | 0.00 | 93 | 1010.7 |
| 20260905093038 | 62 | 41 | 0.0 | 2.0 | 0.00 | 0.00 | 0.00 | 93 | 1010.7 |
| 20260905092519 | 62 | 9 | 0.0 | 2.0 | 0.00 | 0.00 | 0.00 | 92 | 1010.7 |
| 20260905092020 | 62 | 9 | 1.0 | 2.0 | 0.00 | 0.00 | 0.00 | 92 | 1010.6 |
| 20260905091544 | 62 | 0 | 0.0 | 1.0 | 0.00 | 0.00 | 0.00 | 92 | 1010.7 |
| 20260905091021 | 62 | 0 | 0.0 | 2.0 | 0.00 | 0.00 | 0.00 | 92 | 1010.7 |
| 20260905090519 | 62 | 9 | 0.0 | 2.0 | 0.00 | 0.00 | 0.00 | 92 | 1010.7 |
| 20260905090035 | 62 | 9 | 1.0 | 2.0 | 0.00 | 0.00 | 0.00 | 92 | 1010.7 |
| 20260905085518 | 63 | 34 | 0.0 | 2.0 | 0.00 | 0.00 | 0.00 | 91 | 1010.7 |
| 20260905085021 | 63 | 0 | 0.0 | 2.0 | 0.00 | 0.00 | 0.00 | 91 | 1010.8 |
| 20260905084537 | 63 | 9 | 0.0 | 2.0 | 0.00 | 0.00 | 0.00 | 91 | 1010.7 |
| 20260905084021 | 63 | 325 | 0.0 | 2.0 | 0.00 | 0.00 | 0.00 | 91 | 1010.6 |